Regional Weather Roundup
Issued by NWS

Home | Current Version | Previous Version | Graphics & Text | Print | Product List | Glossary On
Versions: 1 2 3 4 5 6 7 8 9 10 11 12 13 14 15 16 17 18 19 20 21 22 23 24 25 26 27 28 29 30 31 32 33 34 35 36 37 38 39 40 41 42 43 44 45 46 47 48 49 50
000
ASUS43 KBIS 280420
RWRND

NORTH DAKOTA REGIONAL WEATHER ROUNDUP
NATIONAL WEATHER SERVICE BISMARCK ND
1100 PM CDT MON APR 27 2015

NOTE: "FAIR" INDICATES FEW OR NO CLOUDS BELOW 12,000 FEET WITH NO
SIGNIFICANT WEATHER AND/OR OBSTRUCTIONS TO VISIBILITY.


NDZ001>003-009>011-017-280500-
NORTHWEST NORTH DAKOTA

CITY           SKY/WX    TMP DP  RH WIND       PRES   REMARKS
WILLISTON      PTCLDY    44  38  79 SW5       30.29R
MINOT          CLEAR     43  38  82 SW9       30.27R
MINOT AFB      CLEAR     42  42  99 S6        30.26R
$$

NDZ018>021-031>035-040>046-280500-
SOUTHWEST NORTH DAKOTA

CITY           SKY/WX    TMP DP  RH WIND       PRES   REMARKS
BISMARCK       PTCLDY    45  39  79 W3        30.30F
DICKINSON      CLEAR     36  33  89 W7        30.30R
GARRISON         N/A     37  35  92 CALM      30.29R
HETTINGER ARPT CLOUDY    43  38  82 CALM      30.33S
$$

NDZ004>008-012>016-024-026-027-054-280500-
NORTHEAST NORTH DAKOTA

CITY           SKY/WX    TMP DP  RH WIND       PRES   REMARKS
GRAND FORKS    LGT RAIN  48  45  89 N10       30.25S
GRND FRKS AFB  LGT RAIN  48  46  93 N5        30.26F
DEVILS LAKE    PTCLDY    39  36  87 W6        30.26S
$$

NDZ022-023-025-028>030-036>039-047>053-280500-
SOUTHEAST NORTH DAKOTA

CITY           SKY/WX    TMP DP  RH WIND       PRES   REMARKS
FARGO          CLOUDY    53  41  63 N18       30.22R
JAMESTOWN      LGT RAIN  46  44  93 NW6       30.27S
$$




USA.gov is the U.S. government's official web portal to all federal, state and local government web resources and services.